GW1392 Weather Reports


time (UTC)temp
F
wind
direction
speed
knots
gust
knots
rain 1hr
in
rain 24hr
in
rain mn
in
humidity
%
barometer
mb
20260508060056 42 283 0.0 1.7 0.00 0.00 0.00 70 1005.5
20260508054615 41 273 0.0 0.0 0.00 0.01 0.00 71 1005.8
20260508053048 41 273 0.0 0.0 0.00 0.01 0.00 72 1005.9
20260508051537 43 272 0.0 1.7 0.00 0.01 0.00 69 1006.0
20260508050037 42 285 0.0 0.0 0.00 0.01 0.00 69 1006.3
20260508044533 42 285 0.0 0.0 0.00 0.14 0.00 68 1006.2
20260508043035 43 285 0.0 0.0 0.00 0.14 0.00 67 1006.3
20260508041528 43 285 0.0 0.0 0.00 0.14 0.00 66 1006.4
20260508040032 44 284 0.0 0.0 0.00 0.14 0.00 67 1006.3
20260508034530 45 284 0.0 0.0 0.00 0.16 0.14 65 1006.3
20260508033028 46 285 0.0 0.0 0.00 0.16 0.14 58 1006.4
20260508031519 47 284 0.0 0.9 0.00 0.16 0.14 55 1006.3
20260508030019 47 285 0.0 0.9 0.00 0.16 0.14 55 1006.3
20260508024518 48 293 0.0 0.9 0.00 0.16 0.14 58 1006.3
20260508023018 49 277 0.0 1.7 0.00 0.16 0.14 52 1006.1
20260508021517 49 280 0.0 1.7 0.00 0.16 0.14 52 1006.1
20260508020017 50 287 0.0 1.7 0.00 0.16 0.14 50 1005.8
20260508014517 51 286 0.0 2.6 0.00 0.16 0.14 50 1005.7
20260508013016 51 265 0.0 0.9 0.00 0.16 0.14 49 1005.5
20260508011516 52 289 0.0 1.7 0.00 0.16 0.14 47 1005.4
20260508010025 53 290 0.0 1.7 0.00 0.16 0.14 47 1005.2
20260508004523 53 358 0.0 2.6 0.00 0.16 0.14 48 1004.8
20260508003013 54 15 0.0 0.0 0.00 0.00 0.14 46 1004.5
20260508001513 54 86 0.0 0.0 0.00 0.16 0.14 45 1004.3
20260508000012 55 51 0.0 2.6 0.00 0.16 0.14 45 1004.2
20260507234512 56 293 0.0 2.6 0.00 0.16 0.14 44 1004.1
20260507233012 57 52 0.0 3.5 0.00 0.16 0.14 42 1003.9
20260507231511 57 36 0.0 2.6 0.00 0.16 0.14 43 1003.7
20260507230010 58 16 0.0 1.7 0.00 0.16 0.14 41 1003.4
20260507224514 58 34 0.9 3.5 0.00 0.16 0.14 38 1003.2
20260507223009 59 293 0.0 3.5 0.00 0.16 0.14 41 1003.0
20260507221511 60 41 0.0 4.3 0.00 0.16 0.14 40 1002.9
20260507220008 60 47 0.9 4.3 0.00 0.19 0.14 39 1002.9
20260507214515 60 39 2.6 7.8 0.00 0.19 0.14 38 1002.9
20260507213006 60 83 1.7 7.8 0.00 0.19 0.14 38 1002.8
20260507211506 60 37 0.0 5.2 0.00 0.19 0.14 38 1002.8
20260507210005 61 248 0.9 11.3 0.00 0.26 0.14 38 1002.6
20260507204505 61 191 0.9 6.1 0.00 0.26 0.14 37 1002.6
20260507203003 61 115 0.9 7.0 0.00 0.26 0.14 37 1002.5
20260507201501 61 23 1.7 11.3 0.00 0.26 0.14 38 1002.4
20260507200100 61 39 2.6 7.8 0.00 0.26 0.14 42 1002.5
20260507194556 60 46 0.9 6.1 0.00 0.32 0.14 49 1002.4
20260507193052 54 18 0.9 11.3 0.00 0.32 0.14 74 1002.6
20260507191553 51 191 7.0 9.6 0.00 0.32 0.14 85 1002.9
20260507190050 51 190 7.0 10.4 0.00 0.32 0.14 84 1002.9
20260507184549 51 205 8.7 12.2 0.00 0.32 0.14 84 1003.0
20260507183050 51 193 10.4 12.2 0.00 0.32 0.14 84 1003.1
20260507181548 52 204 9.6 13.0 0.00 0.32 0.14 82 1003.3
20260507180057 53 195 10.4 13.9 0.00 0.32 0.14 77 1003.5
20260507174602 54 199 7.8 11.3 0.00 0.32 0.14 74 1003.5
20260507173049 53 193 7.0 12.2 0.00 0.32 0.14 76 1003.8
20260507171600 53 186 8.7 13.0 0.00 0.32 0.14 77 1003.9
20260507170045 52 217 9.6 17.4 0.00 0.32 0.14 80 1004.0
20260507164548 50 184 9.6 12.2 0.00 0.32 0.14 88 1004.0
20260507163049 51 198 11.3 13.0 0.00 0.32 0.14 87 1004.1
20260507161543 51 191 9.6 12.2 0.00 0.32 0.14 86 1004.1
20260507160047 51 193 10.4 13.0 0.00 0.32 0.14 86 1004.5
20260507154540 51 192 10.4 13.9 0.00 0.32 0.14 82 1004.6
20260507153044 52 205 11.3 13.9 0.00 0.32 0.14 82 1004.6
20260507151538 52 194 12.2 13.9 0.00 0.32 0.14 79 1004.6
20260507150037 54 191 7.8 11.3 0.00 0.32 0.14 76 1004.7
20260507144536 57 203 2.6 6.1 0.00 0.32 0.14 68 1004.8
20260507143033 57 306 0.9 4.3 0.00 0.32 0.14 70 1005.0
20260507141530 56 170 1.7 5.2 0.00 0.32 0.14 71 1005.1
20260507140028 56 213 2.6 7.0 0.00 0.32 0.14 71 1005.2
20260507134527 55 58 0.9 4.3 0.00 0.32 0.14 73 1005.3
20260507133025 55 282 0.9 4.3 0.00 0.32 0.14 74 1005.2
20260507131522 54 356 0.9 2.6 0.00 0.32 0.14 73 1005.4
20260507130025 53 28 0.0 5.2 0.00 0.32 0.14 76 1005.5
20260507124529 53 251 0.0 6.1 0.00 0.32 0.14 79 1005.7
20260507123016 53 50 0.0 1.7 0.00 0.32 0.14 81 1005.6
20260507121512 51 48 0.0 2.6 0.00 0.32 0.14 83 1005.5
20260507120010 51 37 0.0 0.9 0.00 0.32 0.14 89 1005.6
20260507114509 48 68 0.0 0.9 0.00 0.32 0.14 91 1005.6
20260507113014 48 34 0.0 0.9 0.00 0.32 0.14 93 1005.8
20260507111513 47 33 0.9 2.6 0.00 0.32 0.14 95 1005.6
20260507110022 46 28 0.0 0.0 0.00 0.32 0.14 95 1005.7
20260507104506 46 28 0.0 0.0 0.00 0.32 0.14 95 1006.5
20260507103005 46 282 0.0 0.0 0.00 0.32 0.14 96 1006.2
20260507101504 46 282 0.0 0.0 0.00 0.32 0.14 95 1005.7
20260507100003 46 282 0.0 0.0 0.00 0.32 0.14 95 1005.8
20260507094501 46 282 0.0 0.0 0.00 0.32 0.14 94 1005.2
20260507093059 46 282 0.0 0.9 0.00 0.32 0.14 94 1005.1
20260507091557 47 330 0.0 0.0 0.00 0.32 0.14 93 1005.1
20260507090101 47 354 0.0 4.3 0.00 0.32 0.14 93 1005.2
20260507084552 47 36 0.0 3.5 0.00 0.32 0.14 94 1005.5
20260507083049 48 345 0.0 5.2 0.00 0.32 0.14 96 1004.7
20260507081546 48 42 0.0 1.7 0.00 0.32 0.14 96 1005.0
20260507080044 48 351 0.0 1.7 0.00 0.32 0.14 96 1004.6
20260507074554 49 8 0.0 2.6 0.00 0.32 0.14 96 1004.8
20260507073045 49 35 0.9 2.6 0.00 0.32 0.14 96 1004.5
20260507071540 49 356 0.0 3.5 0.00 0.32 0.14 97 1004.6
20260507070041 49 41 0.0 1.7 0.00 0.32 0.14 98 1004.4
20260507064535 49 37 0.0 1.7 0.00 0.32 0.14 98 1003.9
20260507063048 50 271 0.0 0.9 0.01 0.32 0.14 98 1003.9
20260507061534 50 295 0.0 0.9 0.01 0.32 0.14 98 1003.9